Location: Chippewa Lake
(41.0698°N, 81.9010°W)
Time: 23:59:08
(UTC+00:00)

ALOS 2 - Pass Details

Date: 09 May 2021
Orbit: 630 x 632 km, 97.9° (Epoch: 24 June)

Event Time Altitude Azimuth Distance (km) Brightness Sun altitude
Exits shadow 04:06:46 22° 46° (NE) 1,387 4.5 -28.8°
Drops below altitude 10° 04:09:15 10° 14° (NNE) 2,024 5.8 -29.0°
Sets 04:11:46 0° 1° (N) 2,936 7.1 -29.2°
